Location: Allos
(44.2333°N, 6.6333°E)
Time: 19:15:57
(UTC+00:00)

Cosmos 2228 Rocket - Pass Details

Date: 24 April 2021
Orbit: 617 x 652 km, 82.5° (Epoch: 05 May)

Event Time Altitude Azimuth Distance (km) Brightness Sun altitude
Exits shadow 23:39:33 28° 10° (N) 1,182 5.0 -32.5°
Drops below altitude 10° 23:41:38 10° 9° (N) 1,993 6.5 -32.5°
Sets 23:43:53 0° 9° (N) 2,905 7.6 -32.5°
